Location: Unspecified
(58.9933°N, 5.6375°E)
Time: 23:41:30
(UTC+01:00)

Resurs 1-4 Rocket - Visible Passes

Search period start: 04 March 2015 00:00
Search period end: 14 March 2015 00:00
Orbit: 801 x 814 km, 98.4° (Epoch: 03 March)

Date Brightness Start Highest point End Pass type
(mag) Time Alt. Az. Time Alt. Az. Time Alt. Az.
04 Mar 3.5 03:46:59 10° NNE 03:51:49 35° E 03:55:06 18° SSE visible
04 Mar 2.2 05:26:47 10° NNE 05:32:01 57° WNW 05:36:12 16° SW visible
05 Mar 4.0 03:22:45 10° NE 03:27:04 25° E 03:30:30 14° SE visible
05 Mar 2.0 05:02:15 10° NNE 05:07:36 80° WNW 05:11:36 18° SSW visible
05 Mar 3.3 06:42:43 10° N 06:46:52 23° NW 06:50:55 10° W visible
06 Mar 4.5 02:58:47 10° NE 03:02:12 18° E 03:05:46 10° SE visible
06 Mar 2.2 04:37:45 10° NNE 04:43:06 74° ESE 04:46:59 19° S visible
06 Mar 3.0 06:18:03 10° N 06:22:39 30° NW 06:27:11 10° WSW visible
07 Mar 4.8 02:35:23 10° NE 02:37:15 12° ENE 02:39:21 10° E visible
07 Mar 2.8 04:13:20 10° NNE 04:18:32 52° E 04:22:23 18° S visible
07 Mar 2.6 05:53:25 10° N 05:58:23 40° WNW 06:03:16 10° SW visible
08 Mar 3.4 03:48:59 10° NNE 03:53:52 36° E 03:57:47 15° SSE visible
08 Mar 2.2 05:28:50 10° NNE 05:34:02 55° WNW 05:38:53 12° SW visible
09 Mar 4.0 03:24:45 10° NNE 03:29:07 26° E 03:33:10 12° SE visible
09 Mar 2.0 05:04:17 10° NNE 05:09:37 77° WNW 05:14:16 14° SSW visible
10 Mar 4.5 03:00:44 10° NE 03:04:16 18° E 03:07:56 10° SE visible
10 Mar 2.2 04:39:47 10° NNE 04:45:08 77° ESE 04:49:40 14° SSW visible
10 Mar 3.0 06:20:05 10° N 06:24:39 29° NW 06:29:07 10° WSW visible
11 Mar 4.8 02:37:15 10° NE 02:39:20 12° ENE 02:41:38 10° ESE visible
11 Mar 2.8 04:15:21 10° NNE 04:20:34 54° E 04:25:03 14° S visible
11 Mar 2.7 05:55:27 10° N 06:00:22 39° WNW 06:05:14 10° SW visible
12 Mar 3.4 03:50:59 10° NNE 03:55:54 38° E 04:00:27 12° SSE visible
12 Mar 2.3 05:30:52 10° NNE 05:36:02 53° WNW 05:41:10 10° SW visible
13 Mar 4.0 03:26:45 10° NNE 03:31:10 27° E 03:35:38 10° SSE visible
13 Mar 2.1 05:06:18 10° NNE 05:11:37 75° WNW 05:16:54 10° SSW visible
